Regional Weather Roundup
Issued by NWS

Home | Current Version | Previous Version | Graphics & Text | Print | Product List | Glossary Off
Versions: 1 2 3 4 5 6 7 8 9 10 11 12 13 14 15 16 17 18 19 20 21 22 23 24 25 26 27 28 29 30 31 32 33 34 35 36 37 38 39 40 41 42 43 44 45 46 47 48 49 50

296
ASUS43 KDMX 171001
RWRIA

WEATHER ROUNDUP FOR IOWA
NATIONAL WEATHER SERVICE DES MOINES IA
400 AM CST WED JAN 17 2018

NOTE: "FAIR" INDICATES FEW OR NO CLOUDS BELOW 12,000 FEET WITH NO
SIGNIFICANT WEATHER AND/OR OBSTRUCTIONS TO VISIBILITY.

* - THESE STATIONS ARE NOT NWS STATIONS...THUS NOT UNDER NWS
QUALITY CONTROL.  THEY ALSO DO NOT REPORT WEATHER SUCH
AS PRECIPITATION OR FOG.

IAZ001>003-012>014-020>022-031>034-043>046-171100-
   NORTHWEST IOWA

CITY           SKY/WX    TMP DP  RH WIND       PRES   REMARKS
CARROLL *      CLOUDY     3  -2  78 SW15      30.52F WCI -15
CHEROKEE *     CLOUDY     1  -2  88 SW5       30.49S WCI  -9
DENISON *      CLOUDY    -4  -8  84 CALM      30.55F
LE MARS *      CLOUDY     3   0  85 S9        30.47F WCI -11
ORANGE CITY *  CLOUDY     3   1  92 S9        30.44S WCI -11
SHELDON *      CLOUDY     3   0  85 S12       30.43F WCI -13
SIOUX CITY     CLEAR      1  -2  87 SE7       30.51F WCI -12
SPENCER        CLOUDY     3  -3  76 SW10      30.45F WCI -12
STORM LAKE *   CLOUDY     3  -2  78 SW13      30.46S WCI -14
$$

IAZ055>058-069>071-079>083-090>094-171100-
   SOUTHWEST IOWA

CITY           SKY/WX    TMP DP  RH WIND       PRES   REMARKS
ATLANTIC *     CLOUDY    -6  -9  84 SW3       30.58F
AUDUBON *      CLOUDY     0  -6  78 CALM      30.55F
CLARINDA *     CLOUDY    -6  -9  84 CALM      30.65S
COUNCIL BLFS * CLOUDY     3   5 100 S8        30.56F WCI -10
CRESTON *      CLOUDY    -2  -6  84 W7        30.58F WCI -16
HARLAN  *      CLOUDY    -4  -8  84 S5        30.60F WCI -15
LAMONI         CLOUDY    -1  -6  79 SW9       30.59F WCI -16
RED OAK *      CLOUDY    -4  -9  77 CALM      30.62F
SHENANDOAH *   CLOUDY    -4  -8  84 CALM      30.63F
$$

IAZ047>049-059>061-072>074-084-171100-
   CENTRAL IOWA

CITY           SKY/WX    TMP DP  RH WIND       PRES   REMARKS
AMES           CLOUDY    -7  -9  91 S5        30.56F WCI -18
ANKENY *       CLOUDY    -8 -11  84 CALM      30.61S
BOONE *        CLOUDY    -2  -6  84 SW10      30.52F WCI -19
CHARITON *     CLOUDY    -2  -6  84 SW5       30.59F WCI -12
DES MOINES     CLOUDY    -2  -7  79 SW3       30.59F
GRINNELL*      CLOUDY    -3  -6  86 W7        30.58F WCI -16
KNOXVILLE *    CLOUDY    -2  -8  78 SW6       30.59F WCI -14
MARSHALLTOWN   CLOUDY    -3  -7  82 SW6       30.56F WCI -15
NEWTON *       CLOUDY    -4  -8  84 W3        30.59F
PELLA *        CLOUDY    -1  -5  84 CALM      30.62F
PERRY *          N/A     -6 -10  83 S7        30.57F WCI -20
$$

IAZ004>006-015-016-023>025-035-036-171100-
   NORTH CENTRAL IOWA

CITY           SKY/WX    TMP DP  RH WIND       PRES   REMARKS
ALGONA *       CLOUDY     0 N/A N/A SW13G18   30.46F WCI -18
CLARION *      CLOUDY    -4  -8  84 S6        30.52S WCI -16
ESTHERVILLE    CLOUDY     3  -1  83 SW13      30.44F WCI -14
FORT DODGE *   CLOUDY    -5  -9  83 SW3       30.52F
MASON CITY     CLOUDY     0  -4  83 SW6       30.50F WCI -12
FOREST CITY *    N/A      0  -6  78 SW3       30.48F
WEBSTER CITY * CLOUDY    -4  -9  77 SW8       30.50F WCI -19
IOWA FALLS *     N/A     -1  -5  83 SW5       30.53F WCI -11
$$

IAZ007>011-017>019-026>030-037>042-050>054-066-171100-
   NORTHEAST IOWA

CITY           SKY/WX    TMP DP  RH WIND       PRES   REMARKS
CEDAR RAPIDS     N/A     -3  -8  79 W6        30.56F WCI -15
CHARLES CITY *   N/A     -4  -6  92 SW6       30.52S WCI -16
CLINTON *        N/A     -5  -9  83 W7        30.59S WCI -19
DECORAH *        N/A     -2  -6  84 SW3       30.49F
DUBUQUE          N/A     -3  -8  79 SW5       30.52F WCI -13
MONTICELLO *     N/A     -4  -9  77 CALM      30.56F
OELWEIN *        N/A     -4  -6  92 SW6       30.54R WCI -16
WATERLOO         N/A     -3  -6  87 W3        30.56S
$$

IAZ064-065-067-068-078-171100-
   EAST CENTRAL IOWA

CITY           SKY/WX    TMP DP  RH WIND       PRES   REMARKS
DAVENPORT        N/A     -1  -6  79 W7        30.61S WCI -14
IOWA CITY        N/A     -2  -8  76 W3        30.63S
MT. PLEASANT * CLOUDY    -2  -6  84 W5        30.63S WCI -12
MUSCATINE *      N/A      0  -6  78 W5        30.64F WCI -10
QUAD CITIES      N/A      0  -4  83 W5        30.60F WCI -10
$$

IAZ062-063-075>077-085>089-095>099-171100-
   SOUTHEAST IOWA

CITY           SKY/WX    TMP DP  RH WIND       PRES   REMARKS
BURLINGTON     CLOUDY    -4  -9  79 SW3       30.62F
FAIRFIELD *    CLOUDY    -2  -9  71 SW6       30.61F WCI -14
FORT MADISON * CLOUDY     0  -6  78 SW3       30.63F
KEOKUK *       CLOUDY    -2  -6  84 W6        30.64F WCI -14
OSKALOOSA *      N/A     -3  -6  85 SW5       30.61F WCI -13
OTTUMWA        CLOUDY    -3  -9  75 SW3       30.61F
WASHINGTON *   CLOUDY    -4  -6  92 W5        30.63S WCI -15
$$

ABBREVIATIONS USED IN REMARKS
   TC - TEMPERATURES IN CELSIUS
  WCI - WIND CHILL INDEX
   HX - HEAT INDEX
  VSB - VISIBILITY
$$





USA.gov is the U.S. government's official web portal to all federal, state and local government web resources and services.